THORAD AGENA D DEB, 42495

Orbit data source: Space-Track

THORAD AGENA D DEB, 42495 is space debris in SSO originally from a launch on Wed, 08 Apr 1970 UTC launched from the Air Force Western Test Range (AFWTR). Debris objects in space refer to the collection of defunct objects orbiting the Earth. Examples of debris include non-operational satellites, rocket bodies, and fragments generated from explosions, collisions, or faulty payload assembly.

Loading next visibility...
Identifier
42495, 1970-025QZ
Orbit
SSO
Country
Flag of USUS
Related business
Manufacturer
Unknown
Mission
Spacecraft
Bus & Motor
Unknown
Mass
Unknown
Launch date (UTC)
1970-04-08 (56 years ago)
Launch vehicle
Unknown
Launch site
Air Force Western Test Range (AFWTR)
Object type
Payload
Rocket body
Debris
Shape & HBR
Unknown shape, 0.1 m
Radar Cross Section
Small (<0.1 m²)

Expand to show TLE details & history
Last TLE update: 10 hours ago

TLE from 10 hours ago
0 THORAD AGENA D DEB
1 42495U 70025QZ  26036.12734142  .00000396  00000-0  62491-3 0  9992
2 42495  99.9806 103.9477 0028257 103.1244 257.3049 13.56533286603907
Epoch: 2026-02-05T03:03Z
TLE epoch observation values (Epoch: 2026-02-05T03:03:22.298Z)
Latitude
-0.00003°
Longitude
-77.17923°
Altitude
1,055.771 km
Speed
7.322 km/s
True Right ascension
06h 55m 47s
True Declination
0° 00' 00"
Sunlit
Object was in full shadow at epoch
Visualization orbit readout
Latitude
Unknown
Longitude
Unknown
Altitude
Unknown
Speed
Unknown
Apparent Right ascension
Unknown
Apparent Declination
Unknown
Sunlit
N/A
Visualization observer readout
Local Sidereal Time
14:55:55
Azimuth
Unknown
Elevation
Unknown
Doppler factor
Unknown
Orbital elements
Apogee altitude
1,066.602 km
Perigee altitude
1,024.648 km
Semi-major axis
7,423.762 km
Eccentricity
0.00283
Inclination
99.9806°
RAAN
103.9477°
Arg. of periapsis
103.1244°
True anomaly
256.98926°
Mean anomaly
257.3049°
Eccentric anomaly
257.14706°
Mean motion
3.39318 °/min
Orbital period
106.1 mins
BSTAR
0.00062491
Loading maneuver chart data...
Computing Atmospheric mass density...

Documentation

Showing up to 5 results
|